FW8857 Weather Reports


time (UTC)temp
F
wind
direction
speed
knots
gust
knots
rain 1hr
in
rain 24hr
in
rain mn
in
humidity
%
barometer
mb
20260506151041 55 315 3.5 7.8 0.00 0.00 0.00 86 1020.3
20260506150804 55 353 4.3 7.8 0.00 0.00 0.00 86 1020.3
20260506150041 55 11 4.3 7.8 0.00 0.00 0.00 86 1020.3
20260506145540 55 330 3.5 7.8 0.00 0.00 0.00 86 1020.2
20260506145041 56 333 3.5 7.8 0.00 0.00 0.00 85 1020.1
20260506144541 56 350 4.3 7.8 0.00 0.00 0.00 85 1020.0
20260506144041 56 343 3.5 7.8 0.00 0.00 0.00 86 1020.1
20260506143800 56 348 3.5 6.1 0.00 0.00 0.00 86 1020.0
20260506143040 56 356 3.5 6.1 0.00 0.00 0.00 86 1019.9
20260506142537 56 325 3.5 5.2 0.00 0.00 0.00 86 1019.7
20260506142038 56 321 2.6 5.2 0.00 0.00 0.00 86 1019.6
20260506141538 56 33 3.5 6.1 0.00 0.00 0.00 87 1019.5
20260506141037 56 9 3.5 6.1 0.00 0.00 0.00 86 1019.5
20260506140538 56 333 2.6 5.2 0.00 0.00 0.00 86 1019.5
20260506140308 56 315 2.6 6.1 0.00 0.00 0.00 86 1019.6
20260506135539 56 333 2.6 6.1 0.00 0.00 0.00 86 1019.5
20260506135039 56 320 1.7 6.1 0.00 0.00 0.00 86 1019.4
20260506134538 56 302 2.6 4.3 0.00 0.00 0.00 86 1019.4
20260506134039 56 336 2.6 5.2 0.00 0.00 0.00 86 1019.3
20260506133539 56 309 2.6 5.2 0.00 0.00 0.00 86 1019.3
20260506133038 56 1 1.7 3.5 0.00 0.00 0.00 86 1019.3
20260506132538 56 301 1.7 3.5 0.00 0.00 0.00 86 1019.2
20260506132038 56 322 1.7 3.5 0.00 0.00 0.00 86 1019.1
20260506131535 56 308 1.7 3.5 0.00 0.00 0.00 86 1019.1
20260506131032 56 302 0.9 2.6 0.00 0.00 0.00 86 1019.0
20260506130532 56 0 0.9 2.6 0.00 0.00 0.00 86 1019.0
20260506130032 56 0 0.9 2.6 0.00 0.00 0.00 86 1019.0
20260506125530 56 316 1.7 4.3 0.00 0.00 0.00 86 1018.9
20260506125029 56 290 2.6 4.3 0.00 0.00 0.00 86 1018.9
20260506124531 56 308 1.7 4.3 0.00 0.00 0.00 86 1018.8
20260506124255 56 322 1.7 3.5 0.00 0.00 0.00 85 1018.8
20260506123531 56 326 1.7 4.3 0.00 0.00 0.00 86 1018.8
20260506123030 56 317 2.6 4.3 0.00 0.00 0.00 85 1018.8
20260506122757 56 320 2.6 6.1 0.00 0.00 0.00 85 1018.9
20260506122258 56 311 3.5 6.1 0.00 0.00 0.00 85 1018.9
20260506121528 56 325 3.5 6.1 0.00 0.00 0.00 85 1018.9
20260506121255 56 319 2.6 7.0 0.00 0.00 0.00 85 1018.9
20260506120527 56 300 3.5 7.0 0.00 0.00 0.00 85 1018.8
20260506120026 56 320 3.5 7.0 0.00 0.00 0.00 85 1018.8
20260506115527 56 335 2.6 6.1 0.00 0.00 0.00 85 1018.7
20260506115255 56 308 2.6 5.2 0.00 0.00 0.00 85 1018.7
20260506114526 56 318 2.6 5.2 0.00 0.00 0.00 85 1018.6
20260506114026 56 326 3.5 6.1 0.00 0.00 0.00 85 1018.5
20260506113527 56 308 3.5 6.1 0.00 0.00 0.00 85 1018.5
20260506113026 56 293 2.6 5.2 0.00 0.00 0.00 84 1018.5
20260506112527 56 326 2.6 4.3 0.00 0.00 0.00 84 1018.5
20260506112252 56 327 2.6 6.1 0.00 0.00 0.00 84 1018.4
20260506111753 56 305 2.6 6.1 0.00 0.00 0.00 84 1018.4
20260506111027 56 293 3.5 6.1 0.00 0.00 0.00 84 1018.3
20260506110530 56 328 3.5 6.1 0.00 0.00 0.00 84 1018.3
20260506110030 56 277 3.5 6.1 0.00 0.00 0.00 84 1018.2
20260506105754 57 305 3.5 6.1 0.00 0.00 0.00 84 1018.1
20260506105031 57 342 2.6 6.1 0.00 0.00 0.00 84 1018.0
20260506104754 57 312 2.6 5.2 0.00 0.00 0.00 84 1018.0
20260506104031 57 336 2.6 5.2 0.00 0.00 0.00 84 1017.9
20260506103530 57 326 1.7 4.3 0.00 0.00 0.00 84 1017.8
20260506103030 57 333 1.7 4.3 0.00 0.00 0.00 84 1017.8
20260506102529 57 323 2.6 4.3 0.00 0.00 0.00 84 1017.7
20260506102029 57 332 2.6 3.5 0.00 0.00 0.00 84 1017.6
20260506101529 57 350 2.6 3.5 0.00 0.00 0.00 83 1017.6
20260506101029 57 314 2.6 4.3 0.00 0.00 0.00 83 1017.5
20260506100529 57 332 1.7 4.3 0.00 0.00 0.00 83 1017.5
20260506100029 57 349 1.7 3.5 0.00 0.00 0.00 84 1017.5
20260506095753 57 334 1.7 4.3 0.00 0.00 0.00 84 1017.6
20260506095030 57 337 1.7 4.3 0.00 0.00 0.00 84 1017.5
20260506094529 57 19 1.7 3.5 0.00 0.00 0.00 84 1017.5
20260506094030 57 2 1.7 3.5 0.00 0.00 0.00 84 1017.5
20260506093529 57 6 1.7 3.5 0.00 0.00 0.00 83 1017.5
20260506093030 57 14 2.6 4.3 0.00 0.00 0.00 83 1017.4
20260506092526 57 7 2.6 4.3 0.00 0.00 0.00 83 1017.4
20260506092027 57 353 2.6 4.3 0.00 0.00 0.00 83 1017.4
20260506091527 57 358 2.6 4.3 0.00 0.00 0.00 83 1017.4
20260506091027 57 29 2.6 5.2 0.00 0.00 0.00 83 1017.4
20260506090526 57 351 2.6 5.2 0.00 0.00 0.00 83 1017.4
20260506090027 57 13 2.6 4.3 0.00 0.00 0.00 83 1017.3
20260506085526 58 1 2.6 5.2 0.00 0.00 0.00 82 1017.3
20260506085027 58 357 2.6 5.2 0.00 0.00 0.00 83 1017.4
20260506084526 58 23 2.6 5.2 0.00 0.00 0.00 82 1017.4
20260506084027 58 29 2.6 5.2 0.00 0.00 0.00 82 1017.3
20260506083526 58 14 3.5 5.2 0.00 0.00 0.00 82 1017.3
20260506083026 58 355 3.5 5.2 0.00 0.00 0.00 82 1017.4
20260506082527 58 11 2.6 5.2 0.00 0.00 0.00 82 1017.4
20260506082026 58 3 1.7 3.5 0.00 0.00 0.00 82 1017.3
20260506081526 58 348 2.6 5.2 0.00 0.00 0.00 81 1017.3
20260506081027 58 11 2.6 5.2 0.00 0.00 0.00 81 1017.2
20260506080527 59 345 3.5 6.1 0.00 0.00 0.00 81 1017.3
20260506073527 59 7 2.6 5.2 0.00 0.00 0.00 81 1017.0
20260506073027 59 15 2.6 5.2 0.00 0.00 0.00 81 1017.0
20260506072527 59 348 2.6 5.2 0.00 0.00 0.00 81 1016.9
20260506072027 59 0 2.6 5.2 0.00 0.00 0.00 82 1016.9
20260506071526 59 325 1.7 3.5 0.00 0.00 0.00 82 1016.9
20260506071251 59 331 1.7 3.5 0.00 0.00 0.00 82 1016.9
20260506070523 59 348 0.9 1.7 0.00 0.00 0.00 83 1016.8
20260506062021 59 337 1.7 2.6 0.00 0.00 0.00 85 1016.6
20260506061753 59 348 0.9 1.7 0.00 0.00 0.00 84 1016.5
20260506061021 59 254 0.0 0.9 0.00 0.00 0.00 84 1016.5
20260506060744 59 0 0.0 1.7 0.00 0.00 0.00 84 1016.5
20260506051015 57 0 0.9 1.7 0.00 0.00 0.00 86 1016.2
20260506050517 57 191 0.9 1.7 0.00 0.00 0.00 86 1016.2
20260506044514 57 0 0.0 1.7 0.00 0.00 0.00 86 1016.1
20260506044013 57 0 0.9 1.7 0.00 0.00 0.00 85 1016.0
20260506043510 57 196 0.9 1.7 0.00 0.00 0.00 85 1015.9
20260506043010 58 0 0.9 1.7 0.00 0.00 0.00 85 1015.8
20260506042507 58 198 0.0 1.7 0.00 0.00 0.00 85 1015.8
20260506042007 58 0 0.0 0.9 0.00 0.00 0.00 84 1015.7
20260506041508 58 0 0.0 0.9 0.00 0.00 0.00 83 1015.7
20260506041501 59 0 0.0 1.7 0.00 0.00 0.00 82 1015.6
20260506040508 59 0 0.9 1.7 0.00 0.00 0.00 81 1015.6
20260506040009 59 255 0.9 1.7 0.00 0.00 0.00 81 1015.5
20260506035509 60 264 0.9 1.7 0.00 0.00 0.00 80 1015.5
20260506035009 60 265 0.9 1.7 0.00 0.00 0.00 79 1015.4
20260506034508 61 284 0.0 1.7 0.00 0.00 0.00 77 1015.3
20260506034008 61 327 0.0 1.7 0.00 0.00 0.00 75 1015.3
20260506033506 61 202 0.9 2.6 0.00 0.00 0.00 74 1015.2
20260506033002 62 39 0.9 3.5 0.00 0.00 0.00 74 1015.2
20260506032502 62 86 0.9 3.5 0.00 0.00 0.00 73 1015.2
20260506032002 62 0 1.7 3.5 0.00 0.00 0.00 72 1015.2
20260506031500 62 30 1.7 4.3 0.00 0.00 0.00 72 1015.1
20260506031223 63 45 1.7 4.3 0.00 0.00 0.00 71 1015.1
20260506030500 63 10 1.7 4.3 0.00 0.00 0.00 70 1015.1
20260506030000 63 9 1.7 2.6 0.00 0.00 0.00 69 1015.1
20260506025500 63 355 1.7 3.5 0.00 0.00 0.00 69 1015.1
20260506025001 64 3 1.7 3.5 0.00 0.00 0.00 69 1014.9
20260506024501 64 342 0.9 1.7 0.00 0.00 0.00 68 1014.9
20260506024001 63 18 1.7 3.5 0.00 0.00 0.00 69 1014.9
20260506023459 63 29 1.7 4.3 0.00 0.00 0.00 69 1014.8
20260506022959 64 18 1.7 4.3 0.00 0.00 0.00 69 1014.9
20260506022457 64 31 0.9 2.6 0.00 0.00 0.00 68 1014.9
20260506021958 64 42 0.9 1.7 0.00 0.00 0.00 68 1014.9
20260506021457 65 0 0.0 1.7 0.00 0.00 0.00 67 1014.8
20260506020957 64 0 0.0 2.6 0.00 0.00 0.00 68 1014.9
20260506020456 64 56 0.9 2.6 0.00 0.00 0.00 70 1014.8
20260506015954 64 39 0.9 2.6 0.00 0.00 0.00 69 1014.8
20260506015945 64 337 0.9 3.5 0.00 0.00 0.00 69 1014.8
20260506014955 64 358 1.7 4.3 0.00 0.00 0.00 69 1014.9
20260506014456 64 293 2.6 5.2 0.00 0.00 0.00 69 1014.9
20260506013955 64 11 1.7 5.2 0.00 0.00 0.00 69 1014.9
20260506013719 64 16 1.7 5.2 0.00 0.00 0.00 68 1014.9
20260506012956 64 29 2.6 5.2 0.00 0.00 0.00 68 1014.9
20260506012942 63 227 2.6 5.2 0.00 0.00 0.00 69 1015.0
20260506011950 63 19 2.6 6.1 0.00 0.00 0.00 70 1014.9
20260506011712 63 16 2.6 6.1 0.00 0.00 0.00 70 1014.9
20260506011213 63 326 3.5 5.2 0.00 0.00 0.00 70 1014.9
20260506010450 63 345 2.6 5.2 0.00 0.00 0.00 70 1014.9
20260506005949 63 316 1.7 3.5 0.00 0.00 0.00 70 1014.9
20260506005450 63 286 2.6 6.1 0.00 0.00 0.00 70 1014.9
20260506004950 63 302 3.5 6.1 0.00 0.00 0.00 70 1015.0
20260506004939 63 359 3.5 6.1 0.00 0.00 0.00 70 1015.0
20260506003950 63 10 3.5 5.2 0.00 0.00 0.00 70 1015.0
20260506003450 63 349 2.6 5.2 0.00 0.00 0.00 70 1015.0
20260506002950 63 12 1.7 4.3 0.00 0.00 0.00 70 1015.0
20260506002448 63 351 1.7 5.2 0.00 0.00 0.00 69 1015.0
20260506001949 63 11 2.6 6.1 0.00 0.00 0.00 70 1015.1
20260506001447 63 352 2.6 6.1 0.00 0.00 0.00 71 1015.1
20260506000945 63 358 2.6 6.1 0.00 0.00 0.00 71 1015.1
20260506000445 63 311 2.6 6.1 0.00 0.00 0.00 71 1015.2
20260505235945 63 27 2.6 5.2 0.00 0.00 0.00 71 1015.2
20260505235445 63 300 2.6 6.1 0.00 0.00 0.00 71 1015.3
20260505234945 63 314 2.6 6.1 0.00 0.00 0.00 71 1015.3
20260505234445 62 349 3.5 6.1 0.00 0.00 0.00 71 1015.4
20260505233945 62 3 3.5 7.8 0.00 0.00 0.00 72 1015.4
20260505233445 62 8 3.5 7.8 0.00 0.00 0.00 72 1015.4
20260505232946 62 12 3.5 7.0 0.00 0.00 0.00 72 1015.4
20260505232445 62 333 3.5 7.0 0.00 0.00 0.00 72 1015.4
20260505231945 62 336 4.3 7.0 0.00 0.00 0.00 72 1015.5
20260505231445 62 32 4.3 7.8 0.00 0.00 0.00 71 1015.5
20260505230947 62 15 4.3 7.8 0.00 0.00 0.00 71 1015.5
20260505230442 62 20 4.3 7.8 0.00 0.00 0.00 71 1015.4
20260505225942 62 345 4.3 7.8 0.00 0.00 0.00 72 1015.5
20260505225443 62 2 4.3 7.8 0.00 0.00 0.00 72 1015.5
20260505224943 62 22 4.3 7.0 0.00 0.00 0.00 71 1015.5
20260505224442 62 350 4.3 7.8 0.00 0.00 0.00 73 1015.6
20260505223943 62 341 4.3 7.8 0.00 0.00 0.00 72 1015.6
20260505223443 63 337 3.5 7.8 0.00 0.00 0.00 72 1015.6
20260505223203 63 20 3.5 7.8 0.00 0.00 0.00 72 1015.7
20260505222710 63 352 3.5 7.0 0.00 0.00 0.00 72 1015.7
20260505221943 62 0 4.3 7.8 0.00 0.00 0.00 72 1015.7
20260505221444 63 357 3.5 7.8 0.00 0.00 0.00 72 1015.7
20260505220944 63 302 2.6 5.2 0.00 0.00 0.00 71 1015.7
20260505220706 62 299 3.5 7.8 0.00 0.00 0.00 72 1015.8
20260505215940 62 299 3.5 7.8 0.00 0.00 0.00 71 1015.8
20260505215437 63 264 3.5 6.1 0.00 0.00 0.00 71 1015.7
20260505214937 62 298 3.5 6.1 0.00 0.00 0.00 72 1015.8
20260505214438 63 330 3.5 6.1 0.00 0.00 0.00 72 1015.8
20260505213938 63 310 2.6 5.2 0.00 0.00 0.00 71 1015.8
20260505213438 63 268 1.7 5.2 0.00 0.00 0.00 70 1015.8
20260505212937 63 289 1.7 5.2 0.00 0.00 0.00 71 1015.9
20260505212437 63 256 2.6 6.1 0.00 0.00 0.00 71 1015.9
20260505211938 63 254 2.6 8.7 0.00 0.00 0.00 71 1015.9
20260505211438 63 292 1.7 8.7 0.00 0.00 0.00 70 1015.9
20260505210936 62 233 2.6 5.2 0.00 0.00 0.00 72 1016.0
20260505210436 62 126 2.6 6.1 0.00 0.00 0.00 72 1016.0
20260505210156 62 356 2.6 6.1 0.00 0.00 0.00 73 1016.1
20260505205435 62 95 1.7 4.3 0.00 0.00 0.00 74 1016.1
20260505204936 61 53 2.6 6.1 0.00 0.00 0.00 74 1016.1
20260505204436 61 351 3.5 6.1 0.00 0.00 0.00 74 1016.2
20260505203932 61 348 2.6 6.1 0.00 0.00 0.00 74 1016.2
20260505203433 61 0 2.6 5.2 0.00 0.00 0.00 75 1016.2
20260505202933 61 310 3.5 7.0 0.00 0.00 0.00 74 1016.2
20260505202433 61 349 3.5 7.0 0.00 0.00 0.00 74 1016.2
20260505201933 61 13 1.7 5.2 0.00 0.00 0.00 74 1016.2
20260505201657 61 28 2.6 7.0 0.00 0.00 0.00 75 1016.3
20260505200933 61 345 2.6 7.0 0.00 0.00 0.00 75 1016.3
20260505200434 61 346 2.6 7.0 0.00 0.00 0.00 75 1016.3
20260505195933 61 4 2.6 5.2 0.00 0.00 0.00 75 1016.3
20260505195433 60 0 2.6 5.2 0.00 0.00 0.00 75 1016.3
20260505195208 60 22 2.6 5.2 0.00 0.00 0.00 76 1016.3
20260505194433 60 330 2.6 5.2 0.00 0.00 0.00 76 1016.4
20260505193934 60 74 3.5 5.2 0.00 0.00 0.00 77 1016.4
20260505193431 60 27 2.6 5.2 0.00 0.00 0.00 78 1016.4
20260505192931 59 15 2.6 5.2 0.00 0.00 0.00 79 1016.5
20260505192431 60 23 2.6 5.2 0.00 0.00 0.00 79 1016.4
20260505191931 60 13 1.7 5.2 0.00 0.00 0.00 78 1016.5
20260505191431 60 309 1.7 5.2 0.00 0.00 0.00 75 1016.4
20260505191150 60 353 1.7 5.2 0.00 0.00 0.00 76 1016.5
20260505190431 59 300 1.7 4.3 0.00 0.00 0.00 76 1016.5
20260505185931 59 288 0.9 3.5 0.00 0.00 0.00 76 1016.5
20260505185656 59 0 0.9 3.5 0.00 0.00 0.00 77 1016.4
20260505184932 59 323 0.9 3.5 0.00 0.00 0.00 77 1016.4
20260505184653 59 0 0.9 3.5 0.00 0.00 0.00 78 1016.4
20260505183931 59 292 0.9 3.5 0.00 0.00 0.00 78 1016.5
20260505183431 59 298 0.9 3.5 0.00 0.00 0.00 78 1016.5
20260505182929 59 255 1.7 4.3 0.00 0.00 0.00 78 1016.5
20260505182429 58 283 1.7 4.3 0.00 0.00 0.00 79 1016.5
20260505181929 58 236 1.7 5.2 0.00 0.00 0.00 78 1016.4
20260505181429 58 298 2.6 5.2 0.00 0.00 0.00 78 1016.4
20260505180929 58 184 1.7 5.2 0.00 0.00 0.00 79 1016.4
20260505180429 58 181 1.7 4.3 0.00 0.00 0.00 78 1016.3
20260505175930 58 251 0.9 4.3 0.00 0.00 0.00 77 1016.3
20260505175429 58 331 0.9 3.5 0.00 0.00 0.00 78 1016.3
20260505174930 58 297 1.7 5.2 0.00 0.00 0.00 78 1016.3
20260505174429 58 284 1.7 5.2 0.00 0.00 0.00 78 1016.3
20260505174158 58 275 1.7 5.2 0.00 0.00 0.00 78 1016.3
20260505173429 58 259 1.7 5.2 0.00 0.00 0.00 78 1016.3
20260505172927 58 207 2.6 5.2 0.00 0.00 0.00 79 1016.3
20260505172427 58 195 2.6 6.1 0.00 0.00 0.00 79 1016.2
20260505172146 58 288 3.5 6.1 0.00 0.00 0.00 78 1016.2
20260505171424 58 196 2.6 6.1 0.00 0.00 0.00 78 1016.1
20260505170924 58 186 1.7 3.5 0.00 0.00 0.00 77 1016.1
20260505170424 58 141 1.7 3.5 0.00 0.00 0.00 78 1016.1
20260505165924 58 303 1.7 4.3 0.00 0.00 0.00 78 1016.0
20260505165651 58 291 1.7 4.3 0.00 0.00 0.00 78 1016.0
20260505164924 58 2 1.7 4.3 0.00 0.00 0.00 80 1016.0
20260505164423 58 153 1.7 4.3 0.00 0.00 0.00 80 1016.0
20260505163924 58 189 1.7 4.3 0.00 0.00 0.00 80 1016.0
20260505163424 58 280 0.9 5.2 0.00 0.00 0.00 80 1016.0
20260505162924 58 294 0.9 5.2 0.00 0.00 0.00 80 1016.0
20260505162425 57 279 1.7 4.3 0.00 0.00 0.00 81 1015.9
20260505162411 57 243 1.7 5.2 0.00 0.00 0.00 81 1015.9
20260505161651 57 180 1.7 5.2 0.00 0.00 0.00 82 1015.9
20260505160923 57 305 1.7 5.2 0.00 0.00 0.00 82 1015.9
20260505160427 56 0 1.7 5.2 0.00 0.00 0.00 82 1015.9
20260505152919 56 205 1.7 4.3 0.00 0.00 0.00 85 1015.8
20260505152419 55 267 1.7 4.3 0.00 0.00 0.00 85 1015.8
20260505151920 55 198 0.9 4.3 0.00 0.00 0.00 85 1015.8
20260505151419 55 254 0.9 3.5 0.00 0.00 0.00 85 1015.8